DELTA 1 DEB, 26840

Orbit data source: Space-Track

DELTA 1 DEB, 26840 is space debris in SSO originally from a launch on Thu, 12 Jun 1975 UTC launched from the Air Force Western Test Range (AFWTR). Debris objects in space refer to the collection of defunct objects orbiting the Earth. Examples of debris include non-operational satellites, rocket bodies, and fragments generated from explosions, collisions, or faulty payload assembly.

Loading next visibility...
Identifier
26840, 1975-052KU
Orbit
SSO
Country
Flag of USUS
Related business
Manufacturer
Unknown
Mission
Spacecraft
Bus & Motor
Unknown
Mass
Unknown
Launch date (UTC)
1975-06-12 (51 years ago)
Launch vehicle
Unknown
Launch site
Air Force Western Test Range (AFWTR)
Object type
Payload
Rocket body
Debris
Shape & HBR
Unknown shape, 0.1 m
Radar Cross Section
Medium (>0.1 m² and <1 m²)

Expand to show TLE details & history
Last TLE update: 3 weeks ago

TLE from 3 weeks ago
0 DELTA 1 DEB
1 26840U 75052KU  26151.65748453  .00000361  00000-0  14385-2 0  9999
2 26840  99.7132  46.4480 0367932  81.5608 311.0456 12.73382017590904
Epoch: 2026-05-31T15:46Z
TLE epoch observation values (Epoch: 2026-05-31T15:46:46.663Z)
Latitude
28.91509°
Longitude
-84.80014°
Altitude
1,190.581 km
Speed
7.345 km/s
True Right ascension
02h 44m 12s
True Declination
28° 46' 41"
Sunlit
Object was in daylight at epoch
Visualization orbit readout
Latitude
Unknown
Longitude
Unknown
Altitude
Unknown
Speed
Unknown
Apparent Right ascension
Unknown
Apparent Declination
Unknown
Sunlit
N/A
Visualization observer readout
Local Sidereal Time
18:55:28
Azimuth
Unknown
Elevation
Unknown
Doppler factor
Unknown
Orbital elements
Apogee altitude
1,650.51 km
Perigee altitude
1,080.677 km
Semi-major axis
7,743.731 km
Eccentricity
0.03679
Inclination
99.7132°
RAAN
46.448°
Arg. of periapsis
81.5608°
True anomaly
307.7687°
Mean anomaly
311.0456°
Eccentric anomaly
309.417°
Mean motion
3.18506 °/min
Orbital period
113.03 mins
BSTAR
0.0014385
Loading maneuver chart data...
Computing Atmospheric mass density...

Documentation

Showing up to 5 results
|